Location: Gairloch Mountain Observatory
(46.1383°N, 60.9640°W)
Time: 12:11:45
(UTC-03:00)

Daily predictions for brighter satellites

Satellite Brightness Start Highest point End
(mag) Time Altitude Azimuth Time Altitude Azimuth Time Altitude Azimuth
ERBS 2.4 20:32:02 10° NW 20:35:29 84° SW 20:38:57 10° SE
USA 186 1.4 20:33:29 10° SSE 20:36:11 74° ENE 20:39:08 10° N
Cosmos 1939 Rocket 3.6 20:33:51 10° SE 20:37:35 36° ENE 20:41:16 10° N
ATLAS CENTAUR R/B 3.8 20:36:32 10° W 20:38:26 17° SW 20:41:32 10° S
SAR-Lupe-4 3.8 20:35:22 10° SSE 20:38:52 53° ENE 20:42:24 10° N
Cosmos 2227 4.3 20:33:38 10° NNW 20:39:25 85° WSW 20:45:08 10° SSE
Molniya-1 3.5 20:39:31 10° S 20:41:05 27° ESE 20:43:09 10° ENE
SeaSat 1 4.0 20:38:21 10° E 20:42:05 22° NE 20:45:51 10° N
Cosmos 1869 Rocket 3.9 20:39:09 10° NNW 20:43:38 72° W 20:48:05 10° S
Cosmos 2360 4.2 20:38:12 10° SSW 20:43:53 76° ESE 20:49:39 10° NNE
Atlas Centaur 2 4.4 20:40:41 10° S 20:44:27 15° SSE 20:48:30 10° SE
Resurs 1-3 4.2 20:41:24 10° S 20:45:43 61° WSW 20:50:06 10° NNW
CZ-3B DEB 3.6 20:44:16 10° WNW 20:47:00 15° WSW 20:48:59 10° SSW
Cosmos 1408 2.9 20:45:05 10° N 20:48:42 48° ENE 20:52:16 10° SSE
Cosmos 1627 Rocket 4.5 20:45:11 10° N 20:51:26 71° E 20:57:33 10° SSE
DNEPR-1 R/B 4.5 20:47:39 10° SW 20:53:28 69° NW 20:58:17 10° NNE
Cosmos 2195 Rocket 4.4 20:49:00 10° N 20:55:08 77° E 21:01:16 10° SSE
SAR-Lupe-1 4.0 20:52:47 10° SSE 20:56:21 74° ENE 20:59:57 10° N
Abrixas rocket 2.1 20:56:06 10° WSW 20:59:23 70° SSE 21:02:39 10° ENE
Cosmos 2242 Rocket 3.7 20:55:06 10° S 20:59:30 55° E 21:03:55 10° NNE
Cosmos 2279 Rocket 4.2 20:54:10 10° SSE 21:00:07 49° E 21:06:05 10° NNE
Cosmos 1503 Rocket 4.0 20:56:51 10° NNW 21:02:10 84° ENE 21:07:23 10° SSE
Cosmos 1455 3.3 20:59:42 10° SSW 21:03:23 48° WNW 21:07:05 10° N
USA 267 3.8 20:58:04 10° NE 21:04:31 63° NNW 21:10:57 10° WSW
Helios 1A 3.3 21:01:49 10° S 21:06:02 71° WSW 21:10:18 10° NNW
Cosmos 1354 Rocket 4.0 21:00:46 10° NNW 21:06:05 89° WSW 21:11:21 10° SSE
Cosmos 1867 4.4 21:02:04 10° NNW 21:07:11 38° NE 21:11:25 14° ESE
Cosmos 1697 Rocket 4.3 21:02:59 10° WSW 21:08:13 38° NW 21:13:29 10° NNE
Cosmos 1428 Rocket 4.5 21:08:00 10° N 21:14:05 66° ENE 21:20:10 10° SSE
H-2A R/B 3.5 21:12:12 13° E 21:14:58 20° ENE 21:18:28 10° NNE
Cosmos 1869 3.7 21:11:49 10° SSW 21:15:44 67° W 21:19:41 10° N
Milstar 3 4.4 21:10:45 10° SW 21:15:44 18° S 21:19:34 12° SSE
Resurs 01 Rocket 3.8 21:13:08 10° SSW 21:16:52 26° W 21:20:39 10° NW
SJ-11-01 4.4 21:13:29 10° S 21:18:10 79° WSW 21:22:52 10° NNW
Cosmos 2263 Rocket 2.2 21:16:46 10° NNW 21:22:21 76° ENE 21:26:42 17° SSE
Cosmos 968 Rocket 4.0 21:18:34 10° N 21:23:32 43° ENE 21:26:48 20° SE
YAOGAN 6 2.5 21:22:30 17° SSE 21:25:14 72° ENE 21:28:52 10° N
CZ-4B DEB 3.7 21:22:19 10° S 21:25:14 44° W 21:28:11 10° NNW
Meteor 1-29 3.2 21:22:39 10° N 21:26:08 72° WNW 21:29:35 10° SSW
SPOT 5 3.5 21:24:56 20° SE 21:27:47 38° ENE 21:32:06 10° N
COSMOS 2428 4.3 21:28:16 15° E 21:28:16 15° E 21:31:15 10° ENE
Cosmos 2322 Rocket 2.1 21:24:02 10° SSW 21:29:38 81° ESE 21:35:18 10° NNE
Meteor 2-10 Rocket 4.1 21:24:36 10° SSE 21:30:07 46° E 21:35:39 10° NNE
Envisat 3.7 21:27:07 10° S 21:32:05 54° W 21:37:05 10° NNW
Sich 1 Rocket 3.8 21:32:12 10° N 21:36:36 54° ENE 21:39:00 25° SE
Cosmos 1933 3.2 21:36:00 10° S 21:40:02 84° E 21:44:05 10° N
Cosmos 2360 Rocket 2.6 21:34:57 10° S 21:40:10 40° ESE 21:45:26 10° NE
USA 234 3.8 21:35:31 16° SSE 21:40:41 50° SW 21:47:03 10° WNW
Cosmos 1980 Rocket 3.9 21:36:02 10° WSW 21:41:14 36° NW 21:46:29 10° NNE
Cosmos 2322 4.1 21:43:43 16° S 21:47:51 40° ESE 21:53:09 10° NE
H-2A R/B 3.6 21:46:52 19° E 21:47:57 21° ENE 21:51:14 10° NNE
Cosmos 1825 3.9 21:44:50 10° NNW 21:48:14 32° W 21:51:38 10° SSW
Intercosmos 25 Rocket 4.4 21:45:24 10° SSW 21:48:29 42° WNW 21:52:27 10° N
Cosmos 1908 Rocket 3.4 21:45:10 10° N 21:49:31 73° E 21:51:38 29° SSE
NOAA 11 4.2 21:46:15 22° SSE 21:49:57 79° ENE 21:55:28 10° NNW
GENESIS II 4.2 21:51:46 10° SW 21:55:50 89° ESE 21:59:55 10° NE
USA 245 4.2 21:53:15 25° SSE 21:56:41 70° ENE 22:01:43 10° N
SL-16 R/B 2.6 21:51:44 10° SW 21:57:22 66° WNW 22:03:03 10° NNE
SPOT 1/Viking Rocket 3.7 21:59:44 32° SE 22:02:00 58° ENE 22:07:07 10° N
ATLAS 5 CENTAUR R/B 2.4 21:56:53 10° NW 22:02:50 84° SW 22:06:11 30° SSE
Cosmos 1782 Rocket 3.6 21:59:13 10° N 22:03:33 60° E 22:04:48 42° SE
MetOp-B 4.1 22:00:48 24° S 22:04:05 82° WSW 22:09:29 10° NNW
ERS-1 Rocket 3.6 22:02:09 17° S 22:05:56 53° W 22:10:52 10° NNW
Lacrosse 4 Rocket 3.3 22:02:27 10° NW 22:05:58 24° WSW 22:08:46 14° SSW
Okean 2 Rocket 3.5 22:02:11 10° N 22:06:36 48° ENE 22:07:36 40° ESE
Cosmos 2333 Rocket 4.1 22:10:15 13° ENE 22:10:15 13° ENE 22:11:43 10° ENE
Cosmos 1633 4.4 22:10:29 10° NNE 22:12:41 19° ENE 22:12:41 19° ENE
ARGOS 3.1 22:11:28 31° SSE 22:14:08 87° WSW 22:19:33 10° NNW
Cosmos 2278 Rocket 3.7 22:11:21 10° N 22:15:58 25° NE 22:18:16 19° E
Landsat 7 4.1 22:15:35 41° ESE 22:16:43 50° ENE 22:21:19 10° N
Cosmos 1782 3.8 22:17:57 32° ENE 22:17:57 32° ENE 22:20:59 10° NNE
SeaSat 1 2.5 22:17:14 37° S 22:19:11 71° WSW 22:24:09 10° NNW
Meteor 1-26 Rocket 4.3 22:16:14 16° SSW 22:20:54 81° W 22:26:44 10° N
Cosmos 1777 Rocket 4.0 22:19:38 10° NNW 22:24:57 72° ENE 22:26:25 47° SE
USA 229 DEB 3.7 22:18:22 10° SSW 22:25:01 58° ESE 22:31:49 10° NE
USA 229 3.7 22:18:28 10° SSW 22:25:07 58° ESE 22:31:55 10° NE
Cosmos 1844 Rocket 2.9 22:20:16 10° NNW 22:25:46 56° ENE 22:27:24 41° ESE
Cosmos 2266 Rocket 4.2 22:23:41 10° NNW 22:29:54 67° W 22:33:36 26° S
Terra 2.1 22:31:11 46° E 22:31:51 50° ENE 22:36:27 10° N
Okean 1-7 2.9 22:31:05 59° S 22:31:55 84° E 22:36:21 10° N
Atlas Centaur 2 4.1 22:26:44 10° SW 22:31:32 24° S 22:31:32 24° S
SL-08 RB Rocket 3.9 22:31:41 44° SSW 22:33:00 68° WSW 22:37:34 10° NNW
deb Chang Zheng 4 4.4 22:30:07 10° NNE 22:33:28 35° ENE 22:33:28 35° ENE
MOS 1-B Rocket 4.1 22:32:22 31° S 22:35:18 67° WSW 22:40:55 10° NNW
Abrixas rocket 2.9 22:33:02 10° W 22:35:57 52° NNW 22:35:57 52° NNW
Nimbus 7 Rocket 4.3 22:30:38 10° NNE 22:36:35 89° E 22:40:02 27° SSW
Cosmos 1703 Rocket 4.1 22:37:04 29° SW 22:39:06 56° WNW 22:43:28 10° N
Cosmos 2151 Rocket 3.8 22:35:41 10° N 22:40:00 52° ENE 22:40:00 52° ENE
Iridium 4 Rocket 4.4 22:38:48 10° NNE 22:41:39 26° ENE 22:41:39 26° ENE
CZ-4C R/B 3.5 22:36:41 10° NNW 22:43:14 45° NE 22:46:59 27° E
Cosmos 2221 Rocket 3.9 22:44:06 44° SW 22:45:19 64° W 22:49:45 10° N
Cosmos 2219 Rocket 3.0 22:46:58 34° E 22:46:58 34° E 22:51:05 10° NE
Meteor 1-10 Rocket 4.3 22:47:11 52° SSE 22:48:31 68° E 22:54:22 10° NNE
DMSP B5D2-2 4.0 22:44:24 10° NNE 22:49:40 67° ESE 22:50:17 61° SE
Meteor 1-11 Rocket 4.0 22:44:36 10° N 22:49:58 49° ENE 22:50:38 47° E
Cosmos 1867 4.3 22:45:43 10° NW 22:50:50 42° WSW 22:52:05 36° SSW
Cosmos 1244 Rocket 4.4 22:45:10 10° N 22:51:26 87° E 22:53:16 49° SSE
H-2A R/B 2.2 22:52:50 48° SSW 22:53:58 61° WSW 22:58:53 10° NNW
CARTOSAT-1 3.5 22:55:26 82° NE 22:55:26 82° NE 22:59:42 10° NNW
Cosmos 2237 4.2 23:00:10 33° SW 23:02:52 80° WNW 23:08:38 10° NNE
Cosmos 2084 4.3 22:59:34 10° NNW 23:02:45 38° NNE 23:02:45 38° NNE
Cosmos 1553 Rocket 4.0 23:03:23 56° SE 23:04:18 62° E 23:10:27 10° NNE
ASTEX 1 3.2 23:03:59 79° SSE 23:04:19 87° E 23:09:21 10° N
Cosmos 2263 Rocket 4.3 23:02:07 10° WNW 23:05:36 17° W 23:08:25 12° SW
SPOT 5 4.5 23:04:10 22° SW 23:05:56 27° W 23:09:56 10° NW
Okean 1 Rocket 4.1 23:02:26 10° N 23:05:52 35° NE 23:05:52 35° NE
SL-08 R/B 4.3 23:01:17 10° N 23:07:28 75° E 23:08:29 62° SE
Geosat 3.8 23:04:54 10° NNE 23:09:58 87° ESE 23:10:19 77° SSW
COSMOS 2428 2.6 23:10:12 53° SSW 23:11:37 87° WNW 23:17:22 10° NNE
ATLAS 3B R/B 4.5 23:06:34 10° NNW 23:12:09 25° NNE 23:17:31 10° ENE
Cosmos 1536 4.2 23:09:34 10° N 23:12:17 33° NE 23:12:17 33° NE
Cosmos 1674 Rocket 4.4 23:15:48 41° NE 23:15:48 41° NE 23:18:49 10° NNE
NOSS 0 Rocket 4.4 23:16:27 43° E 23:16:27 43° E 23:21:26 10° NE
Cosmos 1570 Rocket 4.0 23:21:51 68° ENE 23:21:51 68° ENE 23:26:40 10° NNE
CZ-4B R/B 3.6 23:17:08 10° NNE 23:21:09 60° NE 23:21:09 60° NE
CZ-4C R/B 4.5 23:24:46 39° N 23:24:46 39° N 23:27:13 10° N
H-2A R/B 3.0 23:23:59 41° W 23:23:59 41° W 23:27:48 10° NNW
Cosmos 2360 Rocket 3.6 23:19:02 10° WSW 23:24:12 36° NW 23:29:27 10° NNE
ALOS 2 4.5 23:24:59 21° NE 23:24:59 21° NE 23:27:44 10° NNE
Cosmos 2208 Rocket 4.1 23:27:00 69° ENE 23:27:00 69° ENE 23:31:51 10° NNE
Cosmos 1844 3.7 23:22:25 10° NNW 23:28:04 65° WSW 23:28:20 64° SW
Cosmos 1980 4.3 23:31:56 44° ENE 23:31:56 44° ENE 23:36:14 10° NE
S3M 3.8 23:32:12 69° SSW 23:33:01 86° W 23:39:16 10° N
SL-16 R/B 4.0 23:37:23 19° ENE 23:37:23 19° ENE 23:39:38 10° NE
Cosmos 1606 4.4 23:38:58 30° NW 23:38:58 30° NW 23:41:46 10° N
CZ-2C R/B 4.3 23:39:21 28° ENE 23:39:21 28° ENE 23:43:10 10° N
Cosmos 1709 Rocket 4.2 23:33:41 10° N 23:39:58 55° ENE 23:40:22 54° E
Cosmos 2150 Rocket 4.4 23:35:33 10° NNW 23:40:48 56° ENE 23:40:48 56° ENE
Cosmos 1386 Rocket 4.4 23:35:30 10° N 23:41:57 88° E 23:42:31 76° SSE
Cosmos 1937 Rocket 3.9 23:36:51 10° NNW 23:41:44 53° NE 23:41:44 53° NE
ATLAS 5 CENTAUR R/B 4.3 23:43:04 10° WNW 23:46:57 17° WSW 23:47:45 17° WSW
Cosmos 2333 Rocket 2.1 23:52:12 85° N 23:52:12 85° N 23:57:52 10° NNE
